User: anonymous   Login
Location: Unspecified
(0.0000°N, 0.0000°E)
Time: 09:18:55
(UTC+00:00)
Language:

COSMOS-2408 - Orbit

View from above orbital plane
View from above orbital plane
View from above satellite
View from above satellite

Ground track
Ground track

The orbit data is extracted from the following two-line orbital elements,

1 28419U 04037A   17268.89248266 -.00000007 +00000-0 -11901-3 0  9991
2 28419 082.4883 161.7374 0017055 052.4880 307.7751 12.45608453591376
Epoch (UTC): 25 September 2017 21:25:10
Eccentricity: 0.0017055
inclination: 82.4883°
perigee height: 1469 km
apogee height: 1496 km
right ascension of ascending node: 161.7374°
argument of perigee: 52.4880°
revolutions per day: 12.45608453
mean anomaly at epoch: 307.7751°
orbit number at epoch: 59137

The dashed part of the orbit path shows where the satellite is in the earth's shadow,  

DLR